sat.trackr.live / text

‹ back to catalog

UNKNOWN

NORAD 89493

UNKNOWN UNKNOWN UNKNOWN

§ Identity

Operator
Country
Launch date
Launch site
Launch vehicle
Mass (kg)
RCS (m²)

External: N2YO · Heavens-Above

§ Orbital elements

Epoch: 2026-05-23T04:02:09.512160Z

Period
101.61 min
Inclination
99.0131°
Eccentricity
0.0078375
Mean motion
14.17160931 rev/d
Perigee alt
778.4 km
Apogee alt
891.5 km
Semi-major
7,213.1 km
B*
8.0639e-4
RAAN
219.2394°
Arg perigee
301.4169°
Mean anomaly
57.9358°
Rev number
48,680

§ Raw data

UNKNOWN1 89493U          26143.16816565  .00001629  00000+0  80639-3 0  99932 89493  99.0131 219.2394 0078375 301.4169  57.9358 14.17160931486808

JSON: /api/v1/satellites/89493 · /tle

For live sub-satellite position, see the globe view (requires WebGL).

§ Visibility from observer

Set your observer location to see the next 7 days of passes ≥ 10°. The values pass through the URL so the page stays shareable.

No JS? Fill the form by hand. The geolocation button needs JavaScript.